|
ตารางข้อมูล |
ค้นข้อมูล1 |
ค้นข้อมูล2 |
ค่าสูงสุด-ต่ำสุด |
Select Sensor -->| 20402 | 4529A | 4529C | 4529D | 4529E | 4529F | 89M1A | 89M1B | หน้าจอย่อ | 4529 |
ข้อมูลรวม (ยังไม่ได้เลือก Sensor)
| ID | Date Time | Room | Temp | Humidity | RSSI | Time |
|---|
| 1056875 | 2026-05-06 09:30:16 | 4529A | 30.8 °C | 48.4 % | | 09:30 |
| 1056874 | 2026-05-06 09:27:29 | 89M1B | 32.9 °C | 69.3 % | | 09:27 |
| 1056873 | 2026-05-06 09:27:28 | 4529D | 29.8 °C | 79.3 % | | 09:27 |
| 1056872 | 2026-05-06 09:24:07 | 20402 | 27.8 °C | 43.4 % | | 09:24 |
| 1056871 | 2026-05-06 09:23:50 | 4529C | 30.6 °C | 52.2 % | | 09:23 |
| 1056870 | 2026-05-06 09:20:06 | 4529A | 30.9 °C | 48.8 % | | 09:20 |
| 1056869 | 2026-05-06 09:17:55 | 4529D | 29.8 °C | 79.1 % | | 09:17 |
| 1056868 | 2026-05-06 09:17:51 | 89M1B | 32.8 °C | 69.2 % | | 09:17 |
| 1056867 | 2026-05-06 09:13:57 | 20402 | 27.5 °C | 42.5 % | | 09:13 |
| 1056866 | 2026-05-06 09:13:38 | 4529C | 30.6 °C | 51.9 % | | 09:13 |
| 1056865 | 2026-05-06 09:09:58 | 4529A | 31.1 °C | 51.6 % | | 09:09 |
| 1056864 | 2026-05-06 09:08:22 | 4529D | 29.8 °C | 79.1 % | | 09:08 |
| 1056863 | 2026-05-06 09:08:12 | 89M1B | 32.8 °C | 68.5 % | | 09:08 |
| 1056862 | 2026-05-06 09:03:47 | 20402 | 27.7 °C | 43.4 % | | 09:03 |
| 1056861 | 2026-05-06 09:03:25 | 4529C | 30.5 °C | 52.3 % | | 09:03 |
| 1056860 | 2026-05-06 08:59:50 | 4529A | 31.3 °C | 55.3 % | | 08:59 |
| 1056859 | 2026-05-06 08:58:49 | 4529D | 29.7 °C | 78.5 % | | 08:58 |
| 1056858 | 2026-05-06 08:58:33 | 89M1B | 32.7 °C | 68.7 % | | 08:58 |
| 1056857 | 2026-05-06 08:53:37 | 20402 | 28.1 °C | 44.9 % | | 08:53 |
| 1056856 | 2026-05-06 08:53:12 | 4529C | 30.5 °C | 52.4 % | | 08:53 |
| 1056855 | 2026-05-06 08:49:42 | 4529A | 31.3 °C | 55.1 % | | 08:49 |
| 1056854 | 2026-05-06 08:49:16 | 4529D | 29.7 °C | 78.2 % | | 08:49 |
| 1056853 | 2026-05-06 08:48:54 | 89M1B | 32.8 °C | 68.3 % | | 08:48 |
| 1056852 | 2026-05-06 08:43:27 | 20402 | 28.6 °C | 47.3 % | | 08:43 |
| 1056851 | 2026-05-06 08:43:00 | 4529C | 30.5 °C | 52.4 % | | 08:43 |
| 1056850 | 2026-05-06 08:39:42 | 4529D | 29.7 °C | 78.1 % | | 08:39 |
| 1056849 | 2026-05-06 08:39:32 | 4529A | 31.4 °C | 55.3 % | | 08:39 |
| 1056848 | 2026-05-06 08:39:15 | 89M1B | 33.0 °C | 68.5 % | | 08:39 |
| 1056847 | 2026-05-06 08:33:18 | 20402 | 28.6 °C | 47.3 % | | 08:33 |
| 1056846 | 2026-05-06 08:32:45 | 4529C | 30.3 °C | 52.4 % | | 08:32 |
| 1056845 | 2026-05-06 08:30:10 | 4529D | 29.7 °C | 78.0 % | | 08:30 |
| 1056844 | 2026-05-06 08:29:37 | 89M1B | 32.9 °C | 68.4 % | | 08:29 |
| 1056843 | 2026-05-06 08:29:17 | 4529A | 31.5 °C | 56.7 % | | 08:29 |
| 1056842 | 2026-05-06 08:23:06 | 20402 | 29.4 °C | 50.7 % | | 08:23 |
| 1056841 | 2026-05-06 08:22:33 | 4529C | 30.3 °C | 52.7 % | | 08:22 |
| 1056840 | 2026-05-06 08:20:36 | 4529D | 29.7 °C | 78.0 % | | 08:20 |
| 1056839 | 2026-05-06 08:19:58 | 89M1B | 32.9 °C | 68.2 % | | 08:19 |
| 1056838 | 2026-05-06 08:19:05 | 4529A | 31.6 °C | 57.0 % | | 08:19 |
| 1056837 | 2026-05-06 08:12:54 | 20402 | 30.9 °C | 51.5 % | | 08:12 |
| 1056836 | 2026-05-06 08:12:20 | 4529C | 30.2 °C | 52.8 % | | 08:12 |
| 1056835 | 2026-05-06 08:11:04 | 4529D | 29.7 °C | 78.3 % | | 08:11 |
| 1056834 | 2026-05-06 08:10:20 | 89M1B | 32.9 °C | 68.0 % | | 08:10 |
| 1056833 | 2026-05-06 08:08:57 | 4529A | 31.6 °C | 57.0 % | | 08:08 |
| 1056832 | 2026-05-06 08:02:44 | 20402 | 30.9 °C | 51.6 % | | 08:02 |
| 1056831 | 2026-05-06 08:02:08 | 4529C | 30.2 °C | 52.3 % | | 08:02 |
| 1056830 | 2026-05-06 08:01:32 | 4529D | 29.7 °C | 78.4 % | | 08:01 |
| 1056829 | 2026-05-06 08:00:41 | 89M1B | 32.9 °C | 67.9 % | | 08:00 |
| 1056828 | 2026-05-06 07:58:43 | 4529A | 31.6 °C | 56.4 % | | 07:58 |
| 1056827 | 2026-05-06 07:52:34 | 20402 | 30.9 °C | 51.5 % | | 07:52 |
| 1056826 | 2026-05-06 07:51:58 | 4529D | 29.8 °C | 78.6 % | | 07:51 |
| 1056825 | 2026-05-06 07:51:55 | 4529C | 30.1 °C | 52.2 % | | 07:51 |
| 1056824 | 2026-05-06 07:51:02 | 89M1B | 33.0 °C | 67.4 % | | 07:51 |
| 1056823 | 2026-05-06 07:48:31 | 4529A | 31.6 °C | 56.3 % | | 07:48 |
| 1056822 | 2026-05-06 07:42:26 | 4529D | 29.8 °C | 78.6 % | | 07:42 |
| 1056821 | 2026-05-06 07:42:24 | 20402 | 30.9 °C | 51.5 % | | 07:42 |
| 1056820 | 2026-05-06 07:41:44 | 4529C | 30.0 °C | 52.2 % | | 07:41 |
| 1056819 | 2026-05-06 07:41:24 | 89M1B | 32.9 °C | 67.6 % | | 07:41 |
| 1056818 | 2026-05-06 07:38:20 | 4529A | 31.5 °C | 55.3 % | | 07:38 |
| 1056817 | 2026-05-06 07:32:53 | 4529D | 29.9 °C | 78.7 % | | 07:32 |
| 1056816 | 2026-05-06 07:32:14 | 20402 | 30.9 °C | 51.5 % | | 07:32 |
| 1056815 | 2026-05-06 07:31:45 | 89M1B | 33.2 °C | 67.6 % | | 07:31 |
| 1056814 | 2026-05-06 07:31:31 | 4529C | 30.0 °C | 52.2 % | | 07:31 |
| 1056813 | 2026-05-06 07:28:08 | 4529A | 31.6 °C | 55.6 % | | 07:28 |
| 1056812 | 2026-05-06 07:23:20 | 4529D | 29.8 °C | 78.7 % | | 07:23 |
| 1056811 | 2026-05-06 07:22:06 | 89M1B | 33.1 °C | 67.2 % | | 07:22 |
| 1056810 | 2026-05-06 07:22:02 | 20402 | 30.9 °C | 51.5 % | | 07:22 |
| 1056809 | 2026-05-06 07:21:17 | 4529C | 29.9 °C | 51.4 % | | 07:21 |
| 1056808 | 2026-05-06 07:17:59 | 4529A | 31.6 °C | 55.3 % | | 07:17 |
| 1056807 | 2026-05-06 07:13:47 | 4529D | 29.9 °C | 78.6 % | | 07:13 |
| 1056806 | 2026-05-06 07:12:27 | 89M1B | 33.1 °C | 67.2 % | | 07:12 |
| 1056805 | 2026-05-06 07:11:52 | 20402 | 30.9 °C | 51.6 % | | 07:11 |
| 1056804 | 2026-05-06 07:11:04 | 4529C | 29.9 °C | 51.4 % | | 07:11 |
| 1056803 | 2026-05-06 07:07:47 | 4529A | 31.6 °C | 55.3 % | | 07:07 |
| 1056802 | 2026-05-06 07:04:14 | 4529D | 29.9 °C | 78.3 % | | 07:04 |
| 1056801 | 2026-05-06 07:02:48 | 89M1B | 33.1 °C | 66.8 % | | 07:02 |
| 1056800 | 2026-05-06 07:01:42 | 20402 | 30.9 °C | 51.6 % | | 07:01 |
| 1056799 | 2026-05-06 07:00:49 | 4529C | 29.8 °C | 51.0 % | | 07:00 |
| 1056798 | 2026-05-06 06:57:35 | 4529A | 31.7 °C | 55.5 % | | 06:57 |
| 1056797 | 2026-05-06 06:54:42 | 4529D | 29.9 °C | 78.5 % | | 06:54 |
| 1056796 | 2026-05-06 06:53:10 | 89M1B | 33.1 °C | 66.9 % | | 06:53 |
| 1056795 | 2026-05-06 06:51:32 | 20402 | 30.9 °C | 51.5 % | | 06:51 |
| 1056794 | 2026-05-06 06:50:36 | 4529C | 29.8 °C | 51.0 % | | 06:50 |
| 1056793 | 2026-05-06 06:47:20 | 4529A | 31.6 °C | 54.3 % | | 06:47 |
| 1056792 | 2026-05-06 06:45:09 | 4529D | 29.9 °C | 78.2 % | | 06:45 |
| 1056791 | 2026-05-06 06:43:31 | 89M1B | 33.4 °C | 66.8 % | | 06:43 |
| 1056790 | 2026-05-06 06:41:23 | 20402 | 30.9 °C | 51.6 % | | 06:41 |
| 1056789 | 2026-05-06 06:40:21 | 4529C | 29.7 °C | 50.8 % | | 06:40 |
| 1056788 | 2026-05-06 06:37:08 | 4529A | 31.6 °C | 53.8 % | | 06:37 |
| 1056787 | 2026-05-06 06:35:36 | 4529D | 29.8 °C | 77.9 % | | 06:35 |
| 1056786 | 2026-05-06 06:33:54 | 89M1B | 33.4 °C | 66.7 % | | 06:33 |
| 1056785 | 2026-05-06 06:31:10 | 20402 | 30.9 °C | 51.5 % | | 06:31 |
| 1056784 | 2026-05-06 06:30:08 | 4529C | 29.5 °C | 50.8 % | | 06:30 |
| 1056783 | 2026-05-06 06:26:55 | 4529A | 31.5 °C | 53.7 % | | 06:26 |
| 1056782 | 2026-05-06 06:26:04 | 4529D | 29.9 °C | 78.0 % | | 06:26 |
| 1056781 | 2026-05-06 06:24:11 | 89M1B | 33.2 °C | 66.3 % | | 06:24 |
| 1056780 | 2026-05-06 06:20:58 | 20402 | 30.9 °C | 51.4 % | | 06:20 |
| 1056779 | 2026-05-06 06:19:55 | 4529C | 29.3 °C | 50.9 % | | 06:19 |
| 1056778 | 2026-05-06 06:16:42 | 4529A | 31.6 °C | 53.3 % | | 06:16 |
| 1056777 | 2026-05-06 06:16:32 | 4529D | 29.9 °C | 77.8 % | | 06:16 |
| 1056776 | 2026-05-06 06:14:32 | 89M1B | 33.3 °C | 66.3 % | | 06:14 |
| 1056775 | 2026-05-06 06:10:48 | 20402 | 30.9 °C | 51.3 % | | 06:10 |
| 1056774 | 2026-05-06 06:09:43 | 4529C | 28.7 °C | 51.5 % | | 06:09 |
| 1056773 | 2026-05-06 06:06:59 | 4529D | 29.9 °C | 77.6 % | | 06:06 |
| 1056772 | 2026-05-06 06:06:30 | 4529A | 31.6 °C | 53.5 % | | 06:06 |
| 1056771 | 2026-05-06 06:04:54 | 89M1B | 33.5 °C | 66.3 % | | 06:04 |
| 1056770 | 2026-05-06 06:00:38 | 20402 | 31.0 °C | 51.1 % | | 06:00 |
| 1056769 | 2026-05-06 05:59:29 | 4529C | 26.5 °C | 53.6 % | | 05:59 |
| 1056768 | 2026-05-06 05:57:26 | 4529D | 29.8 °C | 77.3 % | | 05:57 |
| 1056767 | 2026-05-06 05:56:15 | 4529A | 31.6 °C | 53.0 % | | 05:56 |
| 1056766 | 2026-05-06 05:55:15 | 89M1B | 33.4 °C | 65.8 % | | 05:55 |
| 1056765 | 2026-05-06 05:50:28 | 20402 | 31.0 °C | 51.0 % | | 05:50 |
| 1056764 | 2026-05-06 05:49:17 | 4529C | 26.2 °C | 53.4 % | | 05:49 |
| 1056763 | 2026-05-06 05:47:53 | 4529D | 29.8 °C | 77.0 % | | 05:47 |
| 1056762 | 2026-05-06 05:46:01 | 4529A | 31.6 °C | 52.7 % | | 05:46 |
| 1056761 | 2026-05-06 05:45:36 | 89M1B | 33.4 °C | 65.6 % | | 05:45 |
| 1056760 | 2026-05-06 05:40:19 | 20402 | 30.9 °C | 50.9 % | | 05:40 |
| 1056759 | 2026-05-06 05:39:05 | 4529C | 26.2 °C | 53.4 % | | 05:39 |
| 1056758 | 2026-05-06 05:38:21 | 4529D | 29.9 °C | 77.0 % | | 05:38 |
| 1056757 | 2026-05-06 05:35:57 | 89M1B | 33.4 °C | 65.5 % | | 05:35 |
| 1056756 | 2026-05-06 05:35:49 | 4529A | 31.6 °C | 52.9 % | | 05:35 |
| 1056755 | 2026-05-06 05:30:09 | 20402 | 30.9 °C | 50.8 % | | 05:30 |
| 1056754 | 2026-05-06 05:28:51 | 4529C | 26.3 °C | 53.2 % | | 05:28 |
| 1056753 | 2026-05-06 05:28:48 | 4529D | 29.9 °C | 76.9 % | | 05:28 |
| 1056752 | 2026-05-06 05:26:19 | 89M1B | 33.5 °C | 65.5 % | | 05:26 |
| 1056751 | 2026-05-06 05:25:36 | 4529A | 31.6 °C | 53.0 % | | 05:25 |
| 1056750 | 2026-05-06 05:19:59 | 20402 | 31.0 °C | 50.8 % | | 05:19 |
| 1056749 | 2026-05-06 05:19:15 | 4529D | 29.9 °C | 76.9 % | | 05:19 |
| 1056748 | 2026-05-06 05:18:38 | 4529C | 26.5 °C | 53.3 % | | 05:18 |
| 1056747 | 2026-05-06 05:16:40 | 89M1B | 33.6 °C | 65.5 % | | 05:16 |
| 1056746 | 2026-05-06 05:15:22 | 4529A | 31.6 °C | 52.3 % | | 05:15 |
| 1056745 | 2026-05-06 05:09:50 | 20402 | 31.0 °C | 50.8 % | | 05:09 |
| 1056744 | 2026-05-06 05:09:42 | 4529D | 30.0 °C | 76.8 % | | 05:09 |
| 1056743 | 2026-05-06 05:08:26 | 4529C | 26.5 °C | 53.3 % | | 05:08 |
| 1056742 | 2026-05-06 05:07:02 | 89M1B | 33.6 °C | 65.5 % | | 05:07 |
| 1056741 | 2026-05-06 05:05:09 | 4529A | 31.6 °C | 52.3 % | | 05:05 |
| 1056740 | 2026-05-06 05:00:09 | 4529D | 30.0 °C | 76.7 % | | 05:00 |
| 1056739 | 2026-05-06 04:59:40 | 20402 | 31.0 °C | 50.8 % | | 04:59 |
| 1056738 | 2026-05-06 04:58:12 | 4529C | 26.2 °C | 52.2 % | | 04:58 |
| 1056737 | 2026-05-06 04:57:23 | 89M1B | 33.7 °C | 65.6 % | | 04:57 |
| 1056736 | 2026-05-06 04:54:56 | 4529A | 31.6 °C | 52.6 % | | 04:54 |
| 1056735 | 2026-05-06 04:50:37 | 4529D | 30.0 °C | 76.6 % | | 04:50 |
| 1056734 | 2026-05-06 04:49:30 | 20402 | 31.0 °C | 50.7 % | | 04:49 |
| 1056733 | 2026-05-06 04:47:59 | 4529C | 26.2 °C | 52.2 % | | 04:47 |
| 1056732 | 2026-05-06 04:47:44 | 89M1B | 33.6 °C | 65.3 % | | 04:47 |
Data every 20 minute.